Location: ????????
(37.6846°N, 24.0673°E)
Time: 11:36:53
(UTC+00:00)

Cosmos 2034 Rocket - Pass Details

Date: 14 July 2020
Orbit: 959 x 1000 km, 82.9° (Epoch: 09 August)

Event Time Altitude Azimuth Distance (km) Brightness Sun altitude
Exits shadow 02:09:00 - 194° (SSW) 2,917 6.0 -11.4°
Reaches altitude 10° 02:09:38 10° 195° (SSW) 2,682 5.8 -11.3°
Maximum altitude 02:15:43 68° 278° (W) 1,031 4.0 -10.4°
Drops below altitude 10° 02:21:52 10° 1° (N) 2,704 6.9 -9.4°
Sets 02:24:25 0° 4° (N) 3,657 7.7 -9.0°
